Weather History for Nenana, AK

Change the Weather History Date:

Saturday, June 22, 2013

  Actual Average Record
Temperature  
Mean Temperature 62 °F -  
Max Temperature 75 °F 73 °F 89 °F (1991)
Min Temperature 53 °F 48 °F 39 °F (1965)
Degree Days  
Heating Degree Days 3    
Growing Degree Days 12 (Base 50)    
Moisture  
Dew Point 42 °F    
Average Humidity 50    
Maximum Humidity 95    
Minimum Humidity 20    
Precipitation  
Precipitation 0.02 in - - ()
Sea Level Pressure  
Sea Level Pressure 29.83 in    
Wind  
Wind Speed 3 mph (South)    
Max Wind Speed 9 mph    
Max Gust Speed -    
Visibility 10 miles    
Events Rain    
Averages and records for this station are not official NWS values.
T = Trace of Precipitation, MM = Missing Value Source: NWS Daily Summary

Daily Weather History Graph

Daily Weather History Graph

Search for Another Location

Airport:

Trip Planner

Search our weather history database for the weather conditions in past years. The results will help you decide how hot, cold, wet, or windy it might be!

Date:

Astronomy

Jun. 22, 2013 Rise Set
Actual Time 3:13 AM AKDT 12:43 AM AKDT
Civil Twilight Sun does not rise Sun does not rise
Nautical Twilight Sun does not rise Sun does not rise
Astronomical Twilight Sun does not rise Sun does not rise
Moon 11:07 PM AKDT (6/22) 3:33 AM AKDT (6/22)
Length of Visible Light 24h 00m
Length of Day
21h 30m
Waxing Gibbous, 99% of the Moon is Illuminated
Jun 22
Waxing Gibbous
Jun 23
Full
Jun 29
Last Quarter
Jul 7
New
Jul 15
First Quarter

Hourly Weather History & Observations

Time (AKDT) Temp. Dew Point Humidity Pressure Visibility Wind Dir Wind Speed Gust Speed Precip Events Conditions
12:53 AM 57.9 °F 44.1 °F 60% 29.87 in 10.0 mi SW 3.5 mph - N/A   Clear
1:53 AM 55.9 °F 43.0 °F 62% 29.88 in 10.0 mi Calm Calm - N/A   Clear
2:53 AM 54.0 °F 42.1 °F 64% 29.89 in 10.0 mi Calm Calm - N/A   Clear
3:53 AM 52.0 °F 39.9 °F 63% 29.89 in 10.0 mi SW 3.5 mph - N/A   Clear
4:53 AM 51.1 °F 39.9 °F 66% 29.89 in 10.0 mi Calm Calm - N/A   Clear
5:53 AM 54.0 °F 41.0 °F 62% 29.88 in 10.0 mi Calm Calm - N/A   Clear
6:53 AM 55.9 °F 41.0 °F 57% 29.87 in 10.0 mi SW 3.5 mph - N/A   Clear
7:53 AM 60.1 °F 42.1 °F 51% 29.86 in 10.0 mi SSW 4.6 mph - N/A   Clear
8:53 AM 62.1 °F 39.9 °F 44% 29.86 in 10.0 mi SW 4.6 mph - N/A   Partly Cloudy
9:53 AM 64.0 °F 41.0 °F 43% 29.85 in 10.0 mi Calm Calm - N/A   Clear
10:53 AM 66.0 °F 43.0 °F 43% 29.83 in 10.0 mi NW 3.5 mph - N/A   Clear
11:53 AM 66.9 °F 43.0 °F 42% 29.82 in 10.0 mi Variable 3.5 mph - N/A   Clear
12:53 PM 66.9 °F 39.0 °F 36% 29.81 in 10.0 mi Variable 4.6 mph - N/A   Clear
1:53 PM 70.0 °F 39.9 °F 33% 29.79 in 10.0 mi Variable 3.5 mph - N/A   Clear
2:53 PM 71.1 °F 41.0 °F 34% 29.77 in 10.0 mi Variable 4.6 mph - N/A   Clear
3:53 PM 72.0 °F 41.0 °F 33% 29.74 in 10.0 mi NNE 8.1 mph - N/A   Clear
4:53 PM 73.9 °F 41.0 °F 30% 29.72 in 10.0 mi NE 5.8 mph - N/A   Clear
5:53 PM 73.9 °F 42.1 °F 32% 29.70 in 10.0 mi Variable 4.6 mph - N/A   Clear
6:53 PM 73.9 °F 43.0 °F 33% 29.70 in 10.0 mi East 8.1 mph - N/A   Partly Cloudy
7:53 PM 75.0 °F 34.0 °F 22% 29.68 in 10.0 mi South 8.1 mph - N/A   Clear
8:53 PM 73.9 °F 30.0 °F 20% 29.68 in 10.0 mi South 9.2 mph - N/A   Clear
9:53 PM 71.1 °F 32.0 °F 24% 29.68 in 10.0 mi South 3.5 mph - N/A   Clear
10:53 PM 66.0 °F 41.0 °F 40% 29.68 in 10.0 mi Calm Calm - N/A   Clear
11:53 PM 59.0 °F 46.9 °F 64% 29.69 in 10.0 mi ENE 4.6 mph - N/A   Clear